When you browse on this site, cookies collect data to enhance your experience and personalize the content and advertising you see.
Visit our Privacy Policy to learn more. By continuing to use the site, you agree to this use of cookies and data.
  • In Österreich
  • Länderverzeichnis
  • Für 7 Tage
  • Wassertemperatur
  • Satellitenkarten
  • Wetterkarte
  • News
  • Widgets
  • user-avatar
    Anmelden

    Stündliche Wetter Kavasaki

    Heute, 23 April, Dienstag

    Zeit Temperatur Niederschläge Wind Luftdruck Luftfeuchtigkeit
    00:00 +17°C° 0 mm 2 m/S 757 mmHg 57%
    01:00 +18°C° 0 mm 1 m/S 757 mmHg 56%
    02:00 +16°C° 0 mm 1 m/S 758 mmHg 56%
    03:00 +16°C° 0 mm 1 m/S 758 mmHg 56%
    04:00 +16°C° 0 mm 1 m/S 758 mmHg 57%
    05:00 +16°C° 0 mm 1 m/S 758 mmHg 58%
    06:00 +18°C° 0 mm 1 m/S 759 mmHg 59%
    07:00 +18°C° 0 mm 1 m/S 759 mmHg 62%
    08:00 +19°C° 0 mm 1 m/S 759 mmHg 66%
    09:00 +20°C° 0 mm 1 m/S 759 mmHg 69%
    10:00 +21°C° 0 mm 1 m/S 759 mmHg 67%
    11:00 +21°C° 0 mm 2 m/S 759 mmHg 65%
    12:00 +23°C° 0 mm 2 m/S 758 mmHg 63%
    13:00 +22°C° 0 mm 3 m/S 758 mmHg 60%
    14:00 +24°C° 0 mm 3 m/S 758 mmHg 57%
    15:00 +24°C° 0 mm 3 m/S 758 mmHg 55%
    16:00 +24°C° 0 mm 3 m/S 758 mmHg 59%
    17:00 +22°C° 0 mm 3 m/S 758 mmHg 63%
    18:00 +21°C° 0 mm 2 m/S 758 mmHg 67%
    19:00 +21°C° 0 mm 2 m/S 758 mmHg 70%
    20:00 +20°C° 0 mm 2 m/S 759 mmHg 74%
    21:00 +21°C° 0 mm 1 m/S 759 mmHg 78%
    22:00 +20°C° 0.1 mm 1 m/S 759 mmHg 79%
    23:00 +20°C° 0.1 mm 1 m/S 759 mmHg 80%

    Morgen, 24 April, Mittwoch

    Zeit Temperatur Niederschläge Wind Luftdruck Luftfeuchtigkeit
    00:00 +20°C° 0.1 mm 1 m/S 759 mmHg 81%
    01:00 +20°C° 0.3 mm 1 m/S 759 mmHg 82%
    02:00 +19°C° 0.3 mm 1 m/S 758 mmHg 83%
    03:00 +19°C° 0.3 mm 1 m/S 758 mmHg 83%
    04:00 +19°C° 0.7 mm 1 m/S 758 mmHg 85%
    05:00 +19°C° 0.7 mm 1 m/S 758 mmHg 86%
    06:00 +19°C° 0.7 mm 1 m/S 758 mmHg 87%
    07:00 +18°C° 0.6 mm 2 m/S 757 mmHg 85%
    08:00 +19°C° 0.6 mm 2 m/S 757 mmHg 83%
    09:00 +19°C° 0.6 mm 3 m/S 757 mmHg 81%
    10:00 +19°C° 0.3 mm 3 m/S 757 mmHg 79%
    11:00 +19°C° 0.3 mm 3 m/S 756 mmHg 78%
    12:00 +19°C° 0.3 mm 3 m/S 756 mmHg 77%
    13:00 +20°C° 0.3 mm 3 m/S 755 mmHg 74%
    14:00 +20°C° 0.3 mm 4 m/S 755 mmHg 72%
    15:00 +21°C° 0.3 mm 4 m/S 754 mmHg 70%
    16:00 +20°C° 0.3 mm 3 m/S 753 mmHg 73%
    17:00 +20°C° 0.3 mm 3 m/S 753 mmHg 75%
    18:00 +20°C° 0.3 mm 3 m/S 753 mmHg 78%
    19:00 +19°C° 0.8 mm 3 m/S 752 mmHg 80%
    20:00 +19°C° 0.8 mm 3 m/S 752 mmHg 83%
    21:00 +19°C° 0.8 mm 3 m/S 752 mmHg 85%
    22:00 +19°C° 1.5 mm 2 m/S 752 mmHg 87%
    23:00 +19°C° 1.5 mm 2 m/S 751 mmHg 88%

    übermorgen, 25 April, Donnerstag

    Zeit Temperatur Niederschläge Wind Luftdruck Luftfeuchtigkeit
    00:00 +19°C° 1.5 mm 2 m/S 751 mmHg 89%
    01:00 +19°C° 2 mm 1 m/S 750 mmHg 90%
    02:00 +19°C° 2 mm 1 m/S 749 mmHg 90%
    03:00 +19°C° 2 mm 1 m/S 749 mmHg 91%
    04:00 +19°C° 0.2 mm 1 m/S 748 mmHg 89%
    05:00 +19°C° 0.2 mm 1 m/S 748 mmHg 88%
    06:00 +20°C° 0.2 mm 1 m/S 748 mmHg 87%
    07:00 +21°C° 0 mm 1 m/S 748 mmHg 81%
    08:00 +23°C° 0 mm 1 m/S 748 mmHg 76%
    09:00 +23°C° 0 mm 0 m/S 748 mmHg 71%
    10:00 +26°C° 0 mm 1 m/S 748 mmHg 66%
    11:00 +27°C° 0 mm 2 m/S 747 mmHg 60%
    12:00 +28°C° 0 mm 2 m/S 747 mmHg 55%
    13:00 +28°C° 0 mm 2 m/S 747 mmHg 52%
    14:00 +29°C° 0 mm 3 m/S 746 mmHg 50%
    15:00 +29°C° 0 mm 3 m/S 746 mmHg 47%
    16:00 +28°C° 0 mm 3 m/S 746 mmHg 51%
    17:00 +27°C° 0 mm 3 m/S 746 mmHg 55%
    18:00 +25°C° 0 mm 3 m/S 746 mmHg 59%
    19:00 +24°C° 0 mm 3 m/S 747 mmHg 64%
    20:00 +22°C° 0 mm 3 m/S 747 mmHg 68%
    21:00 +21°C° 0 mm 2 m/S 747 mmHg 72%
    22:00 +20°C° 0 mm 2 m/S 747 mmHg 73%
    23:00 +20°C° 0 mm 2 m/S 747 mmHg 74%

    26 April, Freitag

    Zeit Temperatur Niederschläge Wind Luftdruck Luftfeuchtigkeit
    00:00 +19°C° 0 mm 2 m/S 747 mmHg 74%
    01:00 +19°C° 0 mm 2 m/S 747 mmHg 75%
    02:00 +19°C° 0 mm 2 m/S 747 mmHg 75%
    03:00 +18°C° 0 mm 2 m/S 746 mmHg 75%
    04:00 +18°C° 0 mm 2 m/S 747 mmHg 75%
    05:00 +18°C° 0 mm 2 m/S 747 mmHg 74%
    06:00 +17°C° 0 mm 2 m/S 747 mmHg 73%
    07:00 +18°C° 0 mm 3 m/S 747 mmHg 68%
    08:00 +19°C° 0 mm 3 m/S 747 mmHg 62%
    09:00 +20°C° 0 mm 4 m/S 748 mmHg 56%
    10:00 +20°C° 0 mm 4 m/S 748 mmHg 54%
    11:00 +21°C° 0 mm 5 m/S 748 mmHg 51%
    12:00 +21°C° 0 mm 6 m/S 748 mmHg 48%
    13:00 +20°C° 0 mm 6 m/S 748 mmHg 47%
    14:00 +20°C° 0 mm 6 m/S 749 mmHg 46%
    15:00 +19°C° 0 mm 6 m/S 749 mmHg 45%
    16:00 +17°C° 0 mm 6 m/S 749 mmHg 48%
    17:00 +16°C° 0 mm 5 m/S 750 mmHg 50%
    18:00 +15°C° 0 mm 5 m/S 750 mmHg 52%
    19:00 +14°C° 0 mm 5 m/S 751 mmHg 54%
    20:00 +13°C° 0 mm 4 m/S 752 mmHg 56%
    21:00 +12°C° 0 mm 4 m/S 752 mmHg 59%
    22:00 +12°C° 0 mm 4 m/S 753 mmHg 60%
    23:00 +11°C° 0 mm 4 m/S 753 mmHg 62%

    27 April, Samstag

    Zeit Temperatur Niederschläge Wind Luftdruck Luftfeuchtigkeit
    00:00 +10°C° 0 mm 4 m/S 753 mmHg 64%
    01:00 +10°C° 0 mm 4 m/S 753 mmHg 64%
    02:00 +10°C° 0 mm 4 m/S 753 mmHg 64%
    03:00 +10°C° 0 mm 4 m/S 753 mmHg 64%
    04:00 +10°C° 0 mm 4 m/S 754 mmHg 64%
    05:00 +10°C° 0 mm 4 m/S 754 mmHg 63%
    06:00 +10°C° 0 mm 4 m/S 755 mmHg 63%
    07:00 +11°C° 0 mm 4 m/S 755 mmHg 54%
    08:00 +12°C° 0 mm 5 m/S 756 mmHg 45%
    09:00 +14°C° 0 mm 5 m/S 756 mmHg 36%
    10:00 +15°C° 0 mm 5 m/S 756 mmHg 32%
    11:00 +16°C° 0 mm 6 m/S 756 mmHg 28%
    12:00 +17°C° 0 mm 6 m/S 756 mmHg 24%
    13:00 +17°C° 0 mm 6 m/S 756 mmHg 23%
    14:00 +17°C° 0 mm 6 m/S 756 mmHg 22%
    15:00 +17°C° 0 mm 7 m/S 756 mmHg 21%
    16:00 +16°C° 0 mm 6 m/S 757 mmHg 23%
    17:00 +14°C° 0 mm 6 m/S 758 mmHg 26%
    18:00 +13°C° 0 mm 5 m/S 759 mmHg 28%
    19:00 +12°C° 0 mm 5 m/S 759 mmHg 33%
    20:00 +11°C° 0 mm 4 m/S 760 mmHg 37%
    21:00 +8°C° 0 mm 4 m/S 761 mmHg 42%
    22:00 +9°C° 0 mm 3 m/S 761 mmHg 43%
    23:00 +8°C° 0 mm 3 m/S 761 mmHg 45%

    28 April, Sonntag

    Zeit Temperatur Niederschläge Wind Luftdruck Luftfeuchtigkeit
    00:00 +7°C° 0 mm 2 m/S 762 mmHg 47%
    01:00 +7°C° 0 mm 2 m/S 762 mmHg 46%
    02:00 +7°C° 0 mm 2 m/S 762 mmHg 45%
    03:00 +7°C° 0 mm 2 m/S 762 mmHg 45%
    04:00 +7°C° 0 mm 2 m/S 762 mmHg 43%
    05:00 +7°C° 0 mm 2 m/S 762 mmHg 41%
    06:00 +8°C° 0 mm 1 m/S 763 mmHg 40%
    07:00 +10°C° 0 mm 1 m/S 763 mmHg 34%
    08:00 +13°C° 0 mm 1 m/S 763 mmHg 29%
    09:00 +14°C° 0 mm 0 m/S 762 mmHg 24%
    10:00 +16°C° 0 mm 1 m/S 762 mmHg 22%
    11:00 +17°C° 0 mm 2 m/S 761 mmHg 20%
    12:00 +18°C° 0 mm 2 m/S 761 mmHg 18%
    13:00 +19°C° 0 mm 3 m/S 761 mmHg 19%
    14:00 +19°C° 0 mm 3 m/S 760 mmHg 21%
    15:00 +19°C° 0 mm 4 m/S 760 mmHg 22%
    16:00 +18°C° 0 mm 3 m/S 760 mmHg 30%
    17:00 +17°C° 0 mm 3 m/S 761 mmHg 38%
    18:00 +16°C° 0 mm 3 m/S 761 mmHg 47%
    19:00 +16°C° 0 mm 3 m/S 761 mmHg 52%
    20:00 +15°C° 0 mm 2 m/S 762 mmHg 57%
    21:00 +15°C° 0 mm 2 m/S 762 mmHg 61%
    22:00 +15°C° 0 mm 2 m/S 762 mmHg 63%
    23:00 +14°C° 0 mm 2 m/S 761 mmHg 65%
    Mehr zeigen